,,,PA_Meas_PMT16A,,PR_Meas_QMR101_102,,RH_Meas_QMH101,,SR_Meas_QMS101,,TA_Meas_QMH101,,GenWind,,GenWind,
date,time,status,PA,status,PR,status,RH,status,SR,status,TA,status,DirAvg,status,SpdAvg,
2012-08-16, 07:01:04,VALID,1005.85,VALID,0,VALID,90.0055,VALID,190.649,VALID,24.7937,VALID,28,VALID,0,
2012-08-16, 07:06:04,VALID,1005.84,VALID,0,VALID,88.7544,VALID,123.568,VALID,25.2202,VALID,28,VALID,0,
2012-08-16, 07:07:04,VALID,1005.83,VALID,0,VALID,88.6552,VALID,191.627,VALID,25.3195,VALID,28,VALID,0,
2012-08-16, 07:08:04,VALID,1005.86,VALID,0,VALID,87.7092,VALID,131.637,VALID,25.3741,VALID,28,VALID,0,
2012-08-16, 07:09:04,VALID,1005.88,VALID,0,VALID,87.3507,VALID,138.565,VALID,25.4928,VALID,28,VALID,0,
2012-08-16, 07:10:04,VALID,1005.9,VALID,0,VALID,86.7404,VALID,133.186,VALID,25.6292,VALID,28,VALID,0,
2012-08-16, 07:11:04,VALID,1005.92,VALID,0,VALID,86.42,VALID,134.571,VALID,25.7655,VALID,28,VALID,0,
2012-08-16, 07:12:04,VALID,1005.95,VALID,0,VALID,86.2979,VALID,144.026,VALID,25.9213,VALID,28,VALID,0,
2012-08-16, 07:13:04,VALID,1005.95,VALID,0,VALID,84.055,VALID,144.841,VALID,25.9992,VALID,56,VALID,0.0351563,
2012-08-16, 07:14:04,VALID,1005.98,VALID,0,VALID,84.116,VALID,142.722,VALID,26.0771,VALID,75,VALID,0.492578,
2012-08-16, 07:15:04,VALID,1006.02,VALID,0,VALID,83.2692,VALID,151.036,VALID,26.2154,VALID,77,VALID,0.308203,
2012-08-16, 07:16:04,VALID,1006,VALID,0,VALID,82.4911,VALID,199.697,VALID,26.2524,VALID,77,VALID,0.511328,
2012-08-16, 07:17:04,VALID,1006.03,VALID,0,VALID,82.102,VALID,259.769,VALID,26.3907,VALID,76,VALID,0.524609,
2012-08-16, 07:18:04,VALID,1006.02,VALID,0,VALID,79.8973,VALID,233.768,VALID,26.5466,VALID,71,VALID,0.666797,
2012-08-16, 07:19:04,VALID,1006.03,VALID,0,VALID,78.5851,VALID,258.628,VALID,26.683,VALID,72,VALID,0.823438,
2012-08-16, 07:20:04,VALID,1006.05,VALID,0,VALID,79.5463,VALID,242.571,VALID,26.8173,VALID,77,VALID,0.346875,
2012-08-16, 07:21:04,VALID,1006.05,VALID,0,VALID,78.1731,VALID,261.97,VALID,26.9752,VALID,78,VALID,0.901953,
2012-08-16, 07:22:04,VALID,1006.08,VALID,0,VALID,77.7917,VALID,286.993,VALID,27.129,VALID,85,VALID,0.507813,
2012-08-16, 07:23:04,VALID,1006.09,VALID,0,VALID,78.1426,VALID,355.134,VALID,27.2654,VALID,86,VALID,0.603906,
2012-08-16, 07:24:04,VALID,1006.08,VALID,0,VALID,76.983,VALID,396.704,VALID,27.4992,VALID,68,VALID,0.578125,
2012-08-16, 07:25:04,VALID,1006.08,VALID,0,VALID,74.0688,VALID,422.95,VALID,27.7525,VALID,68,VALID,0.975781,
2012-08-16, 07:26:04,VALID,1006.08,VALID,0,VALID,74.6028,VALID,424.824,VALID,27.9084,VALID,53,VALID,0.6,
2012-08-16, 07:27:04,VALID,1006.07,VALID,0,VALID,73.8399,VALID,428.492,VALID,28.1033,VALID,84,VALID,0.646094,
2012-08-16, 07:28:04,VALID,1006.08,VALID,0,VALID,72.1921,VALID,446.098,VALID,28.2592,VALID,81,VALID,0.855469,
2012-08-16, 07:29:04,VALID,1006.08,VALID,0,VALID,72.2379,VALID,417.896,VALID,28.4151,VALID,60,VALID,0.454688,
2012-08-16, 07:30:04,VALID,1006.07,VALID,0,VALID,68.7896,VALID,430.856,VALID,28.6512,VALID,98,VALID,0.635156,
2012-08-16, 07:31:04,VALID,1006.05,VALID,0,VALID,71.7801,VALID,447.891,VALID,28.766,VALID,60,VALID,0.51875,
2012-08-16, 07:32:04,VALID,1006.08,VALID,0,VALID,66.4475,VALID,424.335,VALID,28.9241,VALID,76,VALID,0.980078,
2012-08-16, 07:33:04,VALID,1006.08,VALID,0,VALID,68.3777,VALID,445.935,VALID,29.0411,VALID,97,VALID,0.614844,
2012-08-16, 07:34:04,VALID,1006.12,VALID,0,VALID,68.8049,VALID,445.039,VALID,29.0021,VALID,118,VALID,1.15664,
2012-08-16, 07:35:04,VALID,1006.12,VALID,0,VALID,66.7756,VALID,445.935,VALID,28.9458,VALID,108,VALID,1.08516,
2012-08-16, 07:36:04,VALID,1006.15,VALID,0,VALID,67.4164,VALID,447.973,VALID,28.9826,VALID,79,VALID,0.573047,
2012-08-16, 07:37:04,VALID,1006.16,VALID,0,VALID,68.4921,VALID,452.293,VALID,28.8851,VALID,107,VALID,0.826172,
2012-08-16, 07:38:04,VALID,1006.19,VALID,0,VALID,67.2486,VALID,454.005,VALID,28.9263,VALID,107,VALID,0.635156,
2012-08-16, 07:39:04,VALID,1006.17,VALID,0,VALID,66.5544,VALID,445.772,VALID,28.9263,VALID,105,VALID,0.791016,
2012-08-16, 07:40:04,VALID,1006.2,VALID,0,VALID,66.028,VALID,418.467,VALID,29.0021,VALID,77,VALID,0.133203,
2012-08-16, 07:41:04,VALID,1006.21,VALID,0,VALID,68.103,VALID,496.797,VALID,28.9631,VALID,123,VALID,1.12031,
2012-08-16, 07:42:04,VALID,1006.23,VALID,0,VALID,64.731,VALID,501.443,VALID,28.8072,VALID,138,VALID,1.70977,
2012-08-16, 07:43:04,VALID,1006.23,VALID,0,VALID,66.8519,VALID,503.236,VALID,28.6902,VALID,122,VALID,1.10391,
2012-08-16, 07:44:04,VALID,1006.26,VALID,0,VALID,68.3853,VALID,488.401,VALID,28.6339,VALID,81,VALID,1.38828,
2012-08-16, 07:45:04,VALID,1006.26,VALID,0,VALID,67.7368,VALID,279.657,VALID,28.5949,VALID,111,VALID,0.833203,
2012-08-16, 07:46:04,VALID,1006.29,VALID,0,VALID,68.2556,VALID,280.472,VALID,28.5754,VALID,89,VALID,0.824219,
2012-08-16, 07:47:04,VALID,1006.26,VALID,0,VALID,67.4469,VALID,260.584,VALID,28.6122,VALID,76,VALID,0.560938,
2012-08-16, 07:48:04,VALID,1006.3,VALID,0,VALID,68.1106,VALID,259.524,VALID,28.6729,VALID,61,VALID,0.684375,
2012-08-16, 07:49:04,VALID,1006.28,VALID,0,VALID,66.1577,VALID,261.807,VALID,28.5169,VALID,118,VALID,1.40313,
2012-08-16, 07:50:04,VALID,1006.29,VALID,0,VALID,67.8055,VALID,260.584,VALID,28.3805,VALID,80,VALID,0.604688,
2012-08-16, 07:51:04,VALID,1006.33,VALID,0,VALID,69.4228,VALID,253.085,VALID,28.361,VALID,56,VALID,0.808203,
2012-08-16, 07:52:04,VALID,1006.34,VALID,0,VALID,69.1329,VALID,246.891,VALID,28.2656,VALID,136,VALID,0.566016,
2012-08-16, 07:53:04,VALID,1006.31,VALID,0,VALID,69.5678,VALID,245.831,VALID,28.1682,VALID,112,VALID,1.3207,
2012-08-16, 07:54:04,VALID,1006.32,VALID,0,VALID,69.6593,VALID,245.668,VALID,28.0881,VALID,97,VALID,1.13945,
2012-08-16, 07:55:04,VALID,1006.31,VALID,0,VALID,70.5061,VALID,245.26,VALID,28.0101,VALID,89,VALID,0.975781,
2012-08-16, 07:56:04,VALID,1006.29,VALID,0,VALID,71.6581,VALID,243.63,VALID,27.9927,VALID,111,VALID,0.935156,
2012-08-16, 07:57:04,VALID,1006.28,VALID,0,VALID,69.9797,VALID,241.103,VALID,27.9105,VALID,120,VALID,1.04297,
2012-08-16, 07:58:04,VALID,1006.25,VALID,0,VALID,71.3529,VALID,238.658,VALID,27.9105,VALID,96,VALID,0.662891,
2012-08-16, 07:59:04,VALID,1006.24,VALID,0,VALID,70.674,VALID,236.865,VALID,27.9495,VALID,95,VALID,0.566016,
2012-08-16, 08:00:04,VALID,1006.23,VALID,0,VALID,71.6657,VALID,235.235,VALID,27.9105,VALID,118,VALID,0.980469,
2012-08-16, 08:01:04,VALID,1006.24,VALID,0,VALID,71.8946,VALID,233.523,VALID,27.8521,VALID,123,VALID,1.05625,
2012-08-16, 08:02:04,VALID,1006.25,VALID,0,VALID,72.154,VALID,231.241,VALID,27.8716,VALID,59,VALID,0.430859,
2012-08-16, 08:03:04,VALID,1006.2,VALID,0,VALID,71.2919,VALID,229.122,VALID,27.93,VALID,90,VALID,0.438672,
2012-08-16, 08:04:04,VALID,1006.23,VALID,0,VALID,71.6123,VALID,227.084,VALID,28.008,VALID,67,VALID,0.506641,
2012-08-16, 08:05:04,VALID,1006.22,VALID,0,VALID,70.9715,VALID,225.291,VALID,28.008,VALID,103,VALID,0.89375,
2012-08-16, 08:06:04,VALID,1006.2,VALID,0,VALID,70.9257,VALID,224.231,VALID,28.008,VALID,139,VALID,0.654688,
2012-08-16, 08:07:04,VALID,1006.2,VALID,0,VALID,70.8876,VALID,223.905,VALID,27.9495,VALID,119,VALID,0.703516,
2012-08-16, 08:08:04,VALID,1006.23,VALID,0,VALID,71.1393,VALID,224.965,VALID,27.9495,VALID,121,VALID,1.01953,
2012-08-16, 08:09:04,VALID,1006.2,VALID,0,VALID,72.0777,VALID,226.758,VALID,27.9105,VALID,135,VALID,1.3,
2012-08-16, 08:10:04,VALID,1006.21,VALID,0,VALID,70.9944,VALID,229.04,VALID,27.9321,VALID,91,VALID,0.761328,
2012-08-16, 08:11:04,VALID,1006.23,VALID,0,VALID,72.276,VALID,232.056,VALID,27.969,VALID,79,VALID,0.95,
2012-08-16, 08:12:04,VALID,1006.24,VALID,0,VALID,73.7331,VALID,235.887,VALID,28.008,VALID,91,VALID,0.683984,
2012-08-16, 08:13:04,VALID,1006.26,VALID,0,VALID,72.9474,VALID,239.718,VALID,28.008,VALID,95,VALID,0.783203,
2012-08-16, 08:14:04,VALID,1006.27,VALID,0,VALID,72.6803,VALID,245.016,VALID,28.1076,VALID,93,VALID,0.325781,
2012-08-16, 08:15:04,VALID,1006.25,VALID,0,VALID,70.5824,VALID,251.21,VALID,28.1054,VALID,98,VALID,0.995703,
2012-08-16, 08:16:04,VALID,1006.27,VALID,0,VALID,72.9245,VALID,259.198,VALID,28.0859,VALID,106,VALID,0.763281,
2012-08-16, 08:17:04,VALID,1006.24,VALID,0,VALID,72.154,VALID,268.164,VALID,28.0275,VALID,138,VALID,1.39297,
2012-08-16, 08:18:04,VALID,1006.25,VALID,0,VALID,71.7954,VALID,277.212,VALID,28.0665,VALID,137,VALID,1.14922,
2012-08-16, 08:19:04,VALID,1006.26,VALID,0,VALID,71.3911,VALID,297.345,VALID,28.0275,VALID,111,VALID,0.725391,
2012-08-16, 08:20:04,VALID,1006.29,VALID,0,VALID,69.6517,VALID,324.487,VALID,27.9669,VALID,137,VALID,2.07773,
2012-08-16, 08:21:04,VALID,1006.27,VALID,0,VALID,70.8799,VALID,332.638,VALID,27.969,VALID,128,VALID,1.1875,
2012-08-16, 08:22:04,VALID,1006.28,VALID,0,VALID,72.2608,VALID,379.832,VALID,28.008,VALID,144,VALID,1.03242,
2012-08-16, 08:23:04,VALID,1006.27,VALID,0,VALID,69.1177,VALID,399.638,VALID,28.047,VALID,102,VALID,1.46484,
2012-08-16, 08:24:04,VALID,1006.28,VALID,0,VALID,70.3459,VALID,558.418,VALID,28.1054,VALID,99,VALID,1.18789,
2012-08-16, 08:25:04,VALID,1006.27,VALID,0,VALID,71.1698,VALID,695.842,VALID,28.244,VALID,112,VALID,2.10234,
2012-08-16, 08:26:04,VALID,1006.29,VALID,0,VALID,73.5653,VALID,765.043,VALID,28.4584,VALID,133,VALID,1.36367,
2012-08-16, 08:27:04,VALID,1006.31,VALID,0,VALID,70.6129,VALID,747.681,VALID,28.6729,VALID,136,VALID,1.07109,
2012-08-16, 08:28:04,VALID,1006.34,VALID,0,VALID,69.2092,VALID,547.984,VALID,28.7314,VALID,122,VALID,1.9875,
2012-08-16, 08:29:04,VALID,1006.35,VALID,0,VALID,66.9663,VALID,637.155,VALID,28.6122,VALID,110,VALID,1.77891,
2012-08-16, 08:30:04,VALID,1006.38,VALID,0,VALID,68.6752,VALID,485.793,VALID,28.6707,VALID,93,VALID,2.1668,
2012-08-16, 08:31:04,VALID,1006.39,VALID,0,VALID,67.1189,VALID,520.842,VALID,28.7509,VALID,94,VALID,1.3582,
2012-08-16, 08:32:04,VALID,1006.41,VALID,0,VALID,70.3383,VALID,425.477,VALID,28.8093,VALID,93,VALID,0.988672,
2012-08-16, 08:33:04,VALID,1006.43,VALID,0,VALID,68.9803,VALID,501.035,VALID,28.8656,VALID,101,VALID,0.8125,
2012-08-16, 08:34:04,VALID,1006.44,VALID,0,VALID,69.5372,VALID,658.51,VALID,29.0021,VALID,83,VALID,0.865625,
2012-08-16, 08:35:04,VALID,1006.42,VALID,0,VALID,66.9129,VALID,678.562,VALID,28.9631,VALID,121,VALID,1.47539,
2012-08-16, 08:36:04,VALID,1006.41,VALID,0,VALID,66.2797,VALID,661.689,VALID,28.9263,VALID,131,VALID,2.30352,
2012-08-16, 08:37:04,VALID,1006.43,VALID,0,VALID,66.2873,VALID,647.996,VALID,28.7292,VALID,111,VALID,1.88828,
2012-08-16, 08:38:04,VALID,1006.38,VALID,0,VALID,67.897,VALID,642.453,VALID,28.7509,VALID,113,VALID,0.946484,
2012-08-16, 08:39:04,VALID,1006.4,VALID,0,VALID,66.1653,VALID,641.149,VALID,28.8072,VALID,151,VALID,1.13281,
2012-08-16, 08:40:04,VALID,1006.37,VALID,0,VALID,68.6294,VALID,641.638,VALID,28.9263,VALID,141,VALID,0.923828,
2012-08-16, 08:41:04,VALID,1006.39,VALID,0,VALID,66.768,VALID,645.795,VALID,29.0043,VALID,82,VALID,2.11914,
2012-08-16, 08:42:04,VALID,1006.36,VALID,0,VALID,64.2428,VALID,654.517,VALID,29.1993,VALID,114,VALID,1.0168,
2012-08-16, 08:43:04,VALID,1006.41,VALID,0,VALID,63.9376,VALID,662.341,VALID,29.1603,VALID,87,VALID,1.48359,
2012-08-16, 08:44:04,VALID,1006.38,VALID,0,VALID,65.5321,VALID,669.596,VALID,29.3185,VALID,109,VALID,0.996094,
2012-08-16, 08:45:04,VALID,1006.4,VALID,0,VALID,65.5245,VALID,680.762,VALID,29.4528,VALID,94,VALID,1.32031,
2012-08-16, 08:46:04,VALID,1006.38,VALID,0,VALID,66.4933,VALID,681.822,VALID,29.6673,VALID,64,VALID,0.503125,
2012-08-16, 08:47:04,VALID,1006.38,VALID,0,VALID,65.2803,VALID,584.908,VALID,29.9988,VALID,133,VALID,0.944531,
2012-08-16, 08:48:04,VALID,1006.38,VALID,0,VALID,62.2746,VALID,672.693,VALID,29.9816,VALID,97,VALID,1.61953,
2012-08-16, 08:49:04,VALID,1006.38,VALID,0,VALID,61.6795,VALID,400.779,VALID,29.9621,VALID,105,VALID,1.52422,
2012-08-16, 08:50:04,VALID,1006.38,VALID,0,VALID,62.4882,VALID,297.997,VALID,29.7648,VALID,172,VALID,1.18203,
2012-08-16, 08:51:04,VALID,1006.36,VALID,0,VALID,65.616,VALID,263.192,VALID,29.665,VALID,183,VALID,1.33555,
2012-08-16, 08:52:04,VALID,1006.4,VALID,0,VALID,63.7698,VALID,244.527,VALID,29.3358,VALID,118,VALID,1.12188,
2012-08-16, 08:53:04,VALID,1006.4,VALID,0,VALID,64.8531,VALID,238.251,VALID,29.1603,VALID,118,VALID,0.462109,
2012-08-16, 08:54:04,VALID,1006.4,VALID,0,VALID,65.4329,VALID,241.348,VALID,29.1603,VALID,119,VALID,0.174219,
2012-08-16, 08:55:04,VALID,1006.39,VALID,0,VALID,66.0661,VALID,246.564,VALID,29.1971,VALID,15,VALID,0.976953,
2012-08-16, 08:56:04,VALID,1006.4,VALID,0,VALID,65.677,VALID,252.678,VALID,29.1993,VALID,38,VALID,0.544922,
2012-08-16, 08:57:04,VALID,1006.41,VALID,0,VALID,67.2028,VALID,260.992,VALID,29.1993,VALID,43,VALID,0.369141,
2012-08-16, 08:58:04,VALID,1006.4,VALID,0,VALID,65.9974,VALID,269.55,VALID,29.2166,VALID,75,VALID,0.230078,
2012-08-16, 08:59:04,VALID,1006.4,VALID,0,VALID,66.1271,VALID,279.494,VALID,29.1408,VALID,159,VALID,0.462891,
2012-08-16, 09:00:04,VALID,1006.4,VALID,0,VALID,66.2263,VALID,290.009,VALID,29.0628,VALID,69,VALID,0.704687,
2012-08-16, 09:01:04,VALID,1006.4,VALID,0,VALID,66.4323,VALID,300.279,VALID,29.0043,VALID,90,VALID,0.467187,
2012-08-16, 09:02:04,VALID,1006.37,VALID,0,VALID,69.0414,VALID,308.022,VALID,29.0628,VALID,75,VALID,1.09023,
2012-08-16, 09:03:04,VALID,1006.36,VALID,0,VALID,66.9282,VALID,311.853,VALID,28.9458,VALID,179,VALID,0.790234,
2012-08-16, 09:04:04,VALID,1006.36,VALID,0,VALID,68.3166,VALID,320.249,VALID,28.8288,VALID,150,VALID,1.2293,
2012-08-16, 09:05:04,VALID,1006.36,VALID,0,VALID,69.6135,VALID,325.058,VALID,28.6902,VALID,157,VALID,1.40664,
2012-08-16, 09:06:04,VALID,1006.34,VALID,0,VALID,72.0548,VALID,330.03,VALID,28.7119,VALID,159,VALID,0.886328,
2012-08-16, 09:07:04,VALID,1006.34,VALID,0,VALID,68.8964,VALID,337.854,VALID,28.6902,VALID,142,VALID,1.31992,
2012-08-16, 09:08:04,VALID,1006.32,VALID,0,VALID,67.3706,VALID,339.159,VALID,28.6924,VALID,158,VALID,1.70977,
2012-08-16, 09:09:04,VALID,1006.32,VALID,0,VALID,68.4387,VALID,342.337,VALID,28.5559,VALID,114,VALID,2.03242,
2012-08-16, 09:10:04,VALID,1006.28,VALID,0,VALID,68.7972,VALID,353.586,VALID,28.4974,VALID,132,VALID,1.66328,
2012-08-16, 09:11:04,VALID,1006.26,VALID,0,VALID,70.9867,VALID,357.335,VALID,28.4563,VALID,144,VALID,1.42461,
2012-08-16, 09:12:04,VALID,1006.28,VALID,0,VALID,71.1012,VALID,328.318,VALID,28.5364,VALID,127,VALID,1.64961,
2012-08-16, 09:13:04,VALID,1006.25,VALID,0,VALID,73.1839,VALID,315.847,VALID,28.6317,VALID,104,VALID,0.755078,
2012-08-16, 09:14:04,VALID,1006.26,VALID,0,VALID,72.8711,VALID,305.984,VALID,28.7682,VALID,108,VALID,1.26563,
2012-08-16, 09:15:04,VALID,1006.25,VALID,0,VALID,67.6682,VALID,296.692,VALID,28.7119,VALID,134,VALID,2.12148,
2012-08-16, 09:16:04,VALID,1006.22,VALID,0,VALID,68.8125,VALID,288.379,VALID,28.4953,VALID,146,VALID,2.2043,
2012-08-16, 09:17:04,VALID,1006.24,VALID,0,VALID,70.0865,VALID,281.369,VALID,28.4,VALID,154,VALID,1.59336,
2012-08-16, 09:18:04,VALID,1006.23,VALID,0,VALID,71.4063,VALID,274.767,VALID,28.3978,VALID,129,VALID,1.33633,
2012-08-16, 09:19:04,VALID,1006.23,VALID,0,VALID,72.2836,VALID,268.735,VALID,28.4173,VALID,138,VALID,1.54648,
2012-08-16, 09:20:04,VALID,1006.25,VALID,0,VALID,71.3071,VALID,263.192,VALID,28.4,VALID,143,VALID,1.80664,
2012-08-16, 09:21:04,VALID,1006.23,VALID,0,VALID,69.7509,VALID,258.954,VALID,28.3198,VALID,155,VALID,2.12422,
2012-08-16, 09:22:04,VALID,1006.21,VALID,0,VALID,70.1094,VALID,256.346,VALID,28.2397,VALID,134,VALID,1.61211,
2012-08-16, 09:23:04,VALID,1006.22,VALID,0,VALID,69.9034,VALID,254.96,VALID,28.2397,VALID,118,VALID,1.12891,
2012-08-16, 09:24:04,VALID,1006.21,VALID,0,VALID,70.5824,VALID,254.96,VALID,28.2809,VALID,126,VALID,0.996875,
2012-08-16, 09:25:04,VALID,1006.19,VALID,0,VALID,69.6364,VALID,256.59,VALID,28.3588,VALID,133,VALID,0.964453,
2012-08-16, 09:26:04,VALID,1006.17,VALID,0,VALID,68.1869,VALID,259.85,VALID,28.3198,VALID,116,VALID,1.17344,
2012-08-16, 09:27:04,VALID,1006.18,VALID,0,VALID,69.461,VALID,265.067,VALID,28.3003,VALID,132,VALID,1.03828,
2012-08-16, 09:28:04,VALID,1006.15,VALID,0,VALID,68.9803,VALID,273.625,VALID,28.2614,VALID,114,VALID,1.02773,
2012-08-16, 09:29:04,VALID,1006.15,VALID,0,VALID,71.0783,VALID,284.711,VALID,28.3003,VALID,116,VALID,0.575,
2012-08-16, 09:30:04,VALID,1006.15,VALID,0,VALID,70.6282,VALID,296.285,VALID,28.3978,VALID,106,VALID,0.682422,
2012-08-16, 09:31:04,VALID,1006.14,VALID,0,VALID,69.9645,VALID,308.511,VALID,28.4736,VALID,79,VALID,0.431641,
2012-08-16, 09:32:04,VALID,1006.12,VALID,0,VALID,68.0725,VALID,321.308,VALID,28.5342,VALID,95,VALID,0.75625,
2012-08-16, 09:33:04,VALID,1006.13,VALID,0,VALID,70.7579,VALID,335.083,VALID,28.5516,VALID,105,VALID,0.701172,
2012-08-16, 09:34:04,VALID,1006.11,VALID,0,VALID,68.3853,VALID,350.651,VALID,28.5537,VALID,149,VALID,0.918359,
2012-08-16, 09:35:04,VALID,1006.11,VALID,0,VALID,71.742,VALID,367.035,VALID,28.5927,VALID,94,VALID,0.817578,
2012-08-16, 09:36:04,VALID,1006.13,VALID,0,VALID,69.255,VALID,384.641,VALID,28.6534,VALID,104,VALID,0.945313,
2012-08-16, 09:37:04,VALID,1006.12,VALID,0,VALID,70.7197,VALID,404.773,VALID,28.6924,VALID,130,VALID,1.88672,
2012-08-16, 09:38:04,VALID,1006.14,VALID,0,VALID,72.6041,VALID,422.053,VALID,28.6729,VALID,100,VALID,0.9625,
2012-08-16, 09:39:04,VALID,1006.15,VALID,0,VALID,70.4451,VALID,441.86,VALID,28.7704,VALID,94,VALID,0.986328,
2012-08-16, 09:40:04,VALID,1006.13,VALID,0,VALID,69.2779,VALID,520.108,VALID,28.8115,VALID,70,VALID,0.912109,
2012-08-16, 09:41:04,VALID,1006.17,VALID,0,VALID,68.9346,VALID,508.371,VALID,28.8678,VALID,90,VALID,1.13359,
2012-08-16, 09:42:04,VALID,1006.17,VALID,0,VALID,68.2556,VALID,515.136,VALID,29.0021,VALID,46,VALID,0.969531,
2012-08-16, 09:43:04,VALID,1006.18,VALID,0,VALID,69.6059,VALID,520.76,VALID,29.1408,VALID,57,VALID,1.03633,
2012-08-16, 09:44:04,VALID,1006.18,VALID,0,VALID,68.7667,VALID,668.536,VALID,29.2361,VALID,120,VALID,1.01367,
2012-08-16, 09:45:04,VALID,1006.18,VALID,0,VALID,67.9581,VALID,816.312,VALID,29.2188,VALID,63,VALID,1.16445,
2012-08-16, 09:46:04,VALID,1006.17,VALID,0,VALID,67.4698,VALID,618.327,VALID,29.2968,VALID,29,VALID,1.0293,
2012-08-16, 09:47:04,VALID,1006.18,VALID,0,VALID,66.7756,VALID,752.816,VALID,29.4333,VALID,53,VALID,0.379687,
2012-08-16, 09:48:04,VALID,1006.16,VALID,0,VALID,68.0267,VALID,862.609,VALID,29.6478,VALID,103,VALID,1.23945,
2012-08-16, 09:49:04,VALID,1006.14,VALID,0,VALID,67.0197,VALID,963.761,VALID,29.6478,VALID,80,VALID,1.69141,
2012-08-16, 09:50:04,VALID,1006.14,VALID,0,VALID,65.9822,VALID,546.599,VALID,29.7843,VALID,128,VALID,1.00586,
2012-08-16, 09:51:04,VALID,1006.15,VALID,0,VALID,63.6172,VALID,522.554,VALID,29.7453,VALID,135,VALID,2.52187,
2012-08-16, 09:52:04,VALID,1006.1,VALID,0,VALID,65.8144,VALID,704.808,VALID,29.4723,VALID,130,VALID,1.12031,
2012-08-16, 09:53:04,VALID,1006.13,VALID,0,VALID,64.9599,VALID,686.305,VALID,29.3163,VALID,125,VALID,1.57383,
2012-08-16, 09:54:04,VALID,1006.08,VALID,0,VALID,66.7451,VALID,1008.59,VALID,29.2751,VALID,139,VALID,2.09063,
2012-08-16, 09:55:04,VALID,1006.09,VALID,0,VALID,66.0356,VALID,971.179,VALID,29.2188,VALID,145,VALID,2.32617,
2012-08-16, 09:56:04,VALID,1006.09,VALID,0,VALID,67.8741,VALID,495.574,VALID,29.2968,VALID,86,VALID,1.53437,
2012-08-16, 09:57:04,VALID,1006.09,VALID,0,VALID,66.0356,VALID,528.096,VALID,29.2773,VALID,114,VALID,1.79766,
2012-08-16, 09:58:04,VALID,1006.08,VALID,0,VALID,66.623,VALID,766.102,VALID,29.2405,VALID,129,VALID,2.29023,
2012-08-16, 09:59:04,VALID,1006.09,VALID,0,VALID,70.056,VALID,834.162,VALID,29.299,VALID,90,VALID,1.70859,
2012-08-16, 10:00:04,VALID,1006.07,VALID,0,VALID,68.042,VALID,496.471,VALID,29.3943,VALID,145,VALID,2.33281,
2012-08-16, 10:01:04,VALID,1006.08,VALID,0,VALID,65.7609,VALID,392.465,VALID,29.416,VALID,133,VALID,2.44727,
2012-08-16, 10:02:04,VALID,1006.06,VALID,0,VALID,65.9974,VALID,396.622,VALID,29.299,VALID,141,VALID,1.60039,
2012-08-16, 10:03:04,VALID,1006.04,VALID,0,VALID,68.1183,VALID,446.098,VALID,29.299,VALID,151,VALID,1.10156,
2012-08-16, 10:04:04,VALID,1006,VALID,0,VALID,67.569,VALID,470.062,VALID,29.2773,VALID,80,VALID,1.44414,
2012-08-16, 10:05:04,VALID,1005.99,VALID,0,VALID,67.2257,VALID,448.951,VALID,29.2405,VALID,121,VALID,1.71641,
2012-08-16, 10:06:04,VALID,1005.95,VALID,0,VALID,67.1189,VALID,414.065,VALID,29.1386,VALID,153,VALID,1.01211,
2012-08-16, 10:07:04,VALID,1005.94,VALID,0,VALID,67.3249,VALID,404.855,VALID,29.1018,VALID,129,VALID,1.71484,
2012-08-16, 10:08:04,VALID,1005.92,VALID,0,VALID,69.3618,VALID,401.431,VALID,29.0823,VALID,148,VALID,1.28047,
2012-08-16, 10:09:04,VALID,1005.89,VALID,0,VALID,68.8735,VALID,399.312,VALID,29.1408,VALID,144,VALID,1.12461,
2012-08-16, 10:10:04,VALID,1005.88,VALID,0,VALID,67.363,VALID,393.933,VALID,29.1408,VALID,126,VALID,0.885938,
2012-08-16, 10:11:04,VALID,1005.91,VALID,0,VALID,67.1647,VALID,384.07,VALID,29.2188,VALID,101,VALID,1.62539,
2012-08-16, 10:12:04,VALID,1005.88,VALID,0,VALID,67.3401,VALID,383.173,VALID,29.1798,VALID,93,VALID,0.788672,
2012-08-16, 10:13:04,VALID,1005.86,VALID,0,VALID,66.3941,VALID,385.863,VALID,29.2773,VALID,53,VALID,0.70625,
2012-08-16, 10:14:04,VALID,1005.86,VALID,0,VALID,66.562,VALID,392.954,VALID,29.3335,VALID,57,VALID,0.6125,
2012-08-16, 10:15:04,VALID,1005.85,VALID,0,VALID,68.1946,VALID,402.899,VALID,29.4723,VALID,60,VALID,0.461719,
2012-08-16, 10:16:04,VALID,1005.85,VALID,0,VALID,64.6395,VALID,415.451,VALID,29.3943,VALID,93,VALID,0.975,
2012-08-16, 10:17:04,VALID,1005.8,VALID,0,VALID,66.3713,VALID,428.492,VALID,29.3575,VALID,45,VALID,1.01563,
2012-08-16, 10:18:04,VALID,1005.8,VALID,0,VALID,65.4863,VALID,443.735,VALID,29.3748,VALID,80,VALID,0.780469,
2012-08-16, 10:19:04,VALID,1005.77,VALID,0,VALID,64.0139,VALID,462.074,VALID,29.3943,VALID,132,VALID,1.62578,
2012-08-16, 10:20:04,VALID,1005.83,VALID,0,VALID,66.5696,VALID,482.94,VALID,29.3358,VALID,133,VALID,1.59258,
2012-08-16, 10:21:04,VALID,1005.76,VALID,0,VALID,66.4399,VALID,542.605,VALID,29.4333,VALID,98,VALID,0.891406,
2012-08-16, 10:22:04,VALID,1005.79,VALID,0,VALID,66.3255,VALID,531.927,VALID,29.4723,VALID,163,VALID,1.2668,
2012-08-16, 10:23:04,VALID,1005.79,VALID,0,VALID,66.7832,VALID,527.526,VALID,29.5503,VALID,135,VALID,0.475781,
2012-08-16, 10:24:04,VALID,1005.81,VALID,0,VALID,67.9504,VALID,508.616,VALID,29.5893,VALID,134,VALID,0.961719,
2012-08-16, 10:25:04,VALID,1005.8,VALID,0,VALID,66.5315,VALID,514.566,VALID,29.6868,VALID,156,VALID,1.23398,
2012-08-16, 10:26:04,VALID,1005.81,VALID,0,VALID,68.0725,VALID,515.544,VALID,29.7843,VALID,89,VALID,1.03164,
2012-08-16, 10:27:04,VALID,1005.79,VALID,0,VALID,65.5779,VALID,524.999,VALID,29.9013,VALID,98,VALID,0.716797,
2012-08-16, 10:28:04,VALID,1005.79,VALID,0,VALID,64.9523,VALID,523.45,VALID,29.9575,VALID,94,VALID,0.894922,
2012-08-16, 10:29:04,VALID,1005.77,VALID,0,VALID,64.6319,VALID,567.954,VALID,29.9988,VALID,136,VALID,1.31836,
2012-08-16, 10:30:04,VALID,1005.76,VALID,0,VALID,65.3337,VALID,667.803,VALID,29.899,VALID,92,VALID,1.53047,
2012-08-16, 10:31:04,VALID,1005.76,VALID,0,VALID,62.183,VALID,521.086,VALID,29.8015,VALID,83,VALID,1.58555,
2012-08-16, 10:32:04,VALID,1005.73,VALID,0,VALID,64.1741,VALID,455.635,VALID,29.6868,VALID,88,VALID,1.28789,
2012-08-16, 10:33:04,VALID,1005.72,VALID,0,VALID,65.4711,VALID,426.862,VALID,29.6088,VALID,51,VALID,1.34922,
2012-08-16, 10:34:04,VALID,1005.69,VALID,0,VALID,64.403,VALID,408.278,VALID,29.5893,VALID,72,VALID,1.23555,
2012-08-16, 10:35:04,VALID,1005.66,VALID,0,VALID,66.3713,VALID,396.704,VALID,29.5698,VALID,26,VALID,1.08125,
2012-08-16, 10:36:04,VALID,1005.64,VALID,0,VALID,66.2873,VALID,392.547,VALID,29.5698,VALID,26,VALID,0.615234,
2012-08-16, 10:37:04,VALID,1005.6,VALID,0,VALID,66.3713,VALID,393.525,VALID,29.626,VALID,124,VALID,0.826563,
2012-08-16, 10:38:04,VALID,1005.58,VALID,0,VALID,64.5708,VALID,396.541,VALID,29.5698,VALID,132,VALID,0.777734,
2012-08-16, 10:39:04,VALID,1005.57,VALID,0,VALID,65.2193,VALID,401.594,VALID,29.548,VALID,125,VALID,0.369141,
2012-08-16, 10:40:04,VALID,1005.55,VALID,0,VALID,66.3026,VALID,404.284,VALID,29.7258,VALID,101,VALID,0.692187,